Location: Bothwell
(42.3833°S, 147.0000°E)
Time: 06:46:48
(UTC+10:00)

MOZHAYETS 4 - Visible Passes

Search period start: 25 September 2022 00:00
Search period end: 05 October 2022 01:00
Orbit: 661 x 677 km, 98.2° (Epoch: 24 September)

Date Brightness Start Highest point End Pass type
(mag) Time Alt. Az. Time Alt. Az. Time Alt. Az.
25 Sep 7.6 03:39:52 10° SSE 03:44:32 85° WSW 03:44:40 83° WNW visible
25 Sep 9.8 05:20:27 10° SW 05:20:48 10° WSW 05:21:10 10° WSW visible
26 Sep 9.9 02:36:07 10° SE 02:39:26 21° E 02:39:26 21° E visible
26 Sep 8.2 04:12:31 10° S 04:16:50 40° WSW 04:17:38 37° W visible
27 Sep 8.6 03:07:49 10° SSE 03:12:15 44° E 03:12:24 44° ENE visible
27 Sep 9.2 04:45:38 10° SSW 04:49:00 20° WSW 04:50:36 17° W visible
28 Sep 7.6 03:40:03 10° SSE 03:44:43 85° WSW 03:45:21 66° NNW visible
28 Sep 9.8 05:20:35 10° SW 05:21:00 10° WSW 05:21:25 10° WSW visible
29 Sep 9.8 02:36:18 10° SE 02:39:50 21° E 02:40:07 21° E visible
29 Sep 8.2 04:12:42 10° S 04:17:02 40° WSW 04:18:19 33° WNW visible
30 Sep 8.6 03:07:59 10° SSE 03:12:26 44° E 03:13:04 41° ENE visible
30 Sep 9.2 04:45:48 10° SSW 04:49:11 20° WSW 04:51:16 15° W visible
01 Oct 7.6 03:40:14 10° SSE 03:44:54 85° WSW 03:46:01 52° NNW visible
02 Oct 9.8 03:36:28 10° SE 03:40:00 21° E 03:40:47 20° ENE visible
02 Oct 8.2 05:12:52 10° S 05:17:12 40° WSW 05:18:58 28° WNW visible
03 Oct 8.7 04:08:09 10° SSE 04:12:37 44° E 04:13:43 37° NE visible
03 Oct 9.2 05:45:58 10° SSW 05:49:21 20° WSW 05:51:55 13° WNW visible
04 Oct 7.6 04:40:23 10° SSE 04:45:04 85° WSW 04:46:40 41° NNW visible
